Location: Haltom City
(32.7996°N, 97.2692°W)
Time: 01:20:05
(UTC+00:00)

Daily predictions for brighter satellites

Satellite Brightness Start Highest point End
(mag) Time Altitude Azimuth Time Altitude Azimuth Time Altitude Azimuth
Delta 168 4.4 02:01:24 10° WSW 02:06:09 40° S 02:13:04 10° ESE
Centaur AC-119 4.2 02:02:43 10° SSW 02:06:27 30° SE 02:15:42 10° E
USA 234 3.4 02:02:34 10° NE 02:08:54 51° SE 02:15:12 10° SSW
DELTA 2 R/B (1) 4.1 02:05:02 10° WNW 02:10:29 54° SSW 02:15:55 10° SE
Meteor 1-18 Rocket 4.4 02:07:59 10° S 02:13:53 87° W 02:19:44 10° N
Resurs 01 Rocket 1.9 02:10:13 10° SSE 02:14:28 51° ENE 02:18:45 10° N
SJ-6B 3.8 02:15:33 10° S 02:18:58 42° W 02:22:25 10° NNW
Cosmos 2026 Rocket 4.0 02:13:35 10° S 02:19:47 79° E 02:25:54 10° N
Lacrosse 5 rocket 2.8 02:22:25 10° WNW 02:26:06 31° WSW 02:29:40 10° S
Cosmos 1470 4.4 02:25:16 10° NE 02:27:46 17° ENE 02:29:33 13° ESE
CZ-4 R/B 2.5 02:25:12 10° S 02:28:56 43° W 02:32:46 10° NNW
CZ-4B R/B 3.2 02:24:51 10° SSE 02:30:07 86° WSW 02:35:27 10° NNW
Cosmos 1328 Rocket 4.3 02:28:07 10° SSW 02:32:19 55° W 02:36:32 10° N
KORONAS-FOTON 4.1 02:28:49 10° SSE 02:32:19 43° E 02:35:52 10° NNE
Cosmos 1842 3.1 02:34:25 10° S 02:37:59 58° E 02:41:35 10° NNE
IRIDIUM 106 4.5 02:37:05 10° N 02:42:13 56° E 02:46:58 12° SSE
H-2A R/B 2.4 02:44:44 10° SW 02:45:22 11° SSW 02:45:26 11° SSW
Cosmos 540 Rocket 4.2 02:46:38 10° N 02:51:23 37° ENE 02:54:15 21° ESE
Meteosat 1 Rocket2 4.3 02:47:52 10° W 02:53:02 49° S 02:58:25 19° ESE
USA 186 4.1 02:53:53 10° SSW 02:56:35 23° W 02:59:19 10° NW
Cosmos 2082 Rocket 4.0 02:52:04 10° SW 02:57:13 34° WNW 03:02:22 10° N
SL-16 R/B 3.7 02:56:12 10° N 03:00:35 22° ENE 03:03:14 16° E
Okean-O 2.6 02:58:43 21° SSE 03:01:34 70° ENE 03:05:58 10° N
Cosmos 1954 Rocket 4.5 02:56:32 10° SSW 03:01:47 65° WNW 03:07:02 10° N
MOS 1-B Rocket 4.3 02:55:40 10° S 03:02:06 65° WSW 03:07:51 10° NNW
Cosmos 1707 2.5 02:59:32 11° S 03:02:57 81° W 03:06:34 10° N
Cosmos 1515 Rocket 4.2 03:00:02 10° SSW 03:04:15 55° W 03:08:30 10° N
SeaSat 1 3.9 03:02:21 17° E 03:04:40 24° ENE 03:08:33 10° N
Cosmos 2369 3.7 02:58:58 10° NNW 03:04:44 87° ENE 03:08:35 22° SSE
PSLV R/B 4.5 03:02:42 13° S 03:05:39 45° W 03:09:02 10° NNW
Atlas Centaur 2 3.0 02:59:23 10° W 03:07:26 76° S 03:14:19 16° E
USA 245 4.4 03:10:21 23° ENE 03:10:43 23° ENE 03:13:48 10° NNE
Cosmos 676 Rocket 4.5 03:07:35 10° SSW 03:12:50 64° WNW 03:18:07 10° N
CZ-4C R/B 3.7 03:09:49 10° N 03:13:55 67° WNW 03:17:58 10° SSW
SPOT 5 2.6 03:14:17 32° SSE 03:16:08 66° ENE 03:20:26 10° N
IRS-1A Rocket 4.4 03:14:38 28° SE 03:17:23 55° ENE 03:22:45 10° N
Cosmos 2228 Rocket 4.0 03:18:36 29° E 03:18:58 29° E 03:22:54 10° NNE
MetOp-B 4.1 03:16:28 27° SSE 03:19:25 74° ENE 03:24:46 10° N
Okean O Rocket 3.2 03:17:51 10° SSW 03:21:46 31° W 03:25:41 10° NW
Tiangong -1.0 03:19:02 10° NW 03:22:01 38° NNE 03:22:45 32° NE
Cosmos 1356 Rocket 4.3 03:25:55 32° E 03:25:55 32° E 03:29:30 10° NNE
ASTRO E2 3.1 03:23:01 10° WSW 03:25:30 36° SSW 03:25:30 36° SSW
Cosmos 1553 Rocket 4.1 03:22:28 10° N 03:28:41 78° W 03:33:03 21° S
Cosmos 1869 Rocket 3.7 03:24:57 10° N 03:29:20 55° E 03:30:17 45° SE
Cosmos 1400 Rocket 2.6 03:28:43 47° S 03:29:44 77° E 03:33:36 10° N
S3M 4.2 03:25:59 10° N 03:32:12 56° E 03:34:41 35° SE
ERS-1 Rocket 3.0 03:30:43 39° SE 03:32:24 61° ENE 03:37:21 10° N
Cosmos 2266 Rocket 4.0 03:30:54 20° S 03:35:26 87° E 03:41:51 10° N
Cosmos 1655 Rocket 4.1 03:34:27 32° SSE 03:37:20 60° E 03:43:37 10° NNE
ATLAS CENTAUR R/B 1.2 03:36:30 27° SW 03:38:11 65° WNW 03:41:41 10° NNE
Meteor 1-22 Rocket 4.4 03:34:17 10° N 03:39:57 61° E 03:41:50 41° SE
Cosmos 841 Rocket 3.9 03:35:51 10° N 03:40:55 46° ENE 03:41:59 40° ESE
Cosmos 1980 Rocket 3.7 03:37:03 10° NW 03:41:56 30° WSW 03:45:43 15° SSW
Cosmos 1763 Rocket 4.3 03:37:37 10° NNW 03:42:34 44° WSW 03:45:08 25° SSW
Spot 2 Rocket 3.6 03:42:27 46° ESE 03:43:35 57° ENE 03:48:33 10° N
Cosmos 2322 Rocket 3.2 03:38:38 10° N 03:43:40 32° ENE 03:44:58 29° E
Cosmos 1300 4.2 03:41:13 10° NNE 03:43:15 23° NE 03:43:15 23° NE
Cosmos 1441 Rocket 3.3 03:41:31 10° NNW 03:45:06 63° W 03:45:27 59° SW
Resurs 01 Rocket 4.5 03:50:17 10° WSW 03:51:07 10° W 03:51:59 10° W
Cosmos 1908 4.0 03:49:37 10° NNW 03:53:02 41° W 03:53:29 39° WSW
Cosmos 1862 Rocket 3.8 03:55:14 52° ENE 03:55:14 52° ENE 03:59:07 10° NNE
Meteor 1-21 4.2 03:54:03 50° SSE 03:55:25 65° E 04:01:10 10° NNE
Cosmos 2278 3.6 03:49:51 10° NNW 03:55:35 90° WSW 03:57:04 52° SSE
Meteor 2-10 Rocket 3.6 03:50:15 10° N 03:55:41 61° E 03:56:28 55° ESE
Terra 1.7 03:54:54 62° SSE 03:55:41 89° W 04:00:24 10° NNW
Cosmos 883 Rocket 4.5 03:55:16 10° N 04:01:37 73° E 04:03:16 51° SSE
Landsat 5 3.8 04:02:37 10° NNE 04:05:57 57° NE 04:05:57 57° NE
Okean 3 4.1 04:08:31 44° NE 04:08:31 44° NE 04:11:34 10° NNE
Ariane Rocket 2.9 04:07:33 67° S 04:08:16 85° WSW 04:13:23 10° NNW
Cosmos 2219 Rocket 3.8 04:05:01 10° NNE 04:09:06 20° ENE 04:09:56 19° ENE
Cosmos 2237 4.2 04:05:25 10° NNW 04:11:09 75° WSW 04:12:12 58° S
SL-14 R/B 4.0 04:12:43 48° WNW 04:12:43 48° WNW 04:16:12 10° N
Cosmos 1707 Rocket 3.8 04:15:11 64° W 04:15:22 65° W 04:19:48 10° N
SJ 16-02 1.6 04:16:46 60° NNE 04:16:46 60° NNE 04:20:18 10° NNE
Cosmos 1346 Rocket 3.9 04:23:41 10° N 04:26:15 40° N 04:26:15 40° N
Cosmos 2315 Rocket 4.1 04:21:50 10° N 04:28:12 75° W 04:29:33 56° SSW
RESURS DK-1 3.3 04:28:16 10° NNW 04:31:10 45° NW 04:31:10 45° NW
SPOT 3 Rocket 3.9 04:32:13 52° WSW 04:32:35 53° W 04:37:36 10° NNW
Cosmos 2360 Rocket 2.2 04:28:21 10° NNW 04:33:59 67° ENE 04:33:59 67° ENE
ATLAS 2AS CENTAUR R/B 2.9 04:29:57 10° NNW 04:36:29 51° NE 04:37:28 48° E
MOS 1 Rocket 4.5 04:38:37 39° WSW 04:39:21 41° W 04:44:23 10° NNW
SeaSat 1 3.5 04:42:03 36° WSW 04:42:03 36° WSW 04:46:23 10° NW
Cosmos 1733 Rocket 3.9 04:39:20 10° NNW 04:42:49 47° NW 04:42:49 47° NW
SL-16 R/B 2.9 04:39:29 10° NW 04:44:47 42° WSW 04:45:05 42° WSW
Okean 1-7 4.1 04:47:57 42° N 04:47:57 42° N 04:50:54 10° N
USA 281 4.0 04:45:41 36° E 04:46:38 38° ENE 04:52:35 10° N
Cosmos 2333 Rocket 2.2 04:41:35 10° NNW 04:47:07 78° NE 04:47:07 78° NE
CZ-2C R/B 4.3 04:50:22 34° ENE 04:50:22 34° ENE 04:59:42 10° N
Meteor 2-20 4.4 04:44:36 10° NNW 04:50:44 70° W 04:51:09 68° WSW
Cosmos 1814 Rocket 4.3 04:51:03 10° NNW 04:55:33 63° N 04:55:33 63° N
Atlas Centaur 2 3.1 04:48:41 10° W 04:56:31 57° SSW 04:56:31 57° SSW
Cosmos 1745 Rocket 4.1 05:08:42 65° ENE 05:08:42 65° ENE 05:14:25 10° N
Cosmos 839 Rocket 4.1 05:05:56 10° NNW 05:12:09 69° NE 05:12:09 69° NE
Nadezhda 1 Rocket 4.2 05:18:57 10° N 05:24:27 65° NE 05:24:27 65° NE
Cosmos 2297 Rocket 3.5 05:29:40 31° NE 05:29:40 31° NE 05:32:44 10° NNE
Cosmos 2322 Rocket 3.6 05:22:44 10° NW 05:26:46 28° W 05:26:46 28° W
CENTAUR R/B 4.4 05:33:37 15° ENE 05:33:37 15° ENE 05:34:55 10° ENE
CZ-3 Stage 3 3.6 05:00:20 10° W 05:34:10 73° SSW 05:35:53 63° SE
COSMOS 2428 3.4 05:46:54 10° NNW 05:51:11 50° N 05:51:11 50° N
Cosmos 2219 Rocket 3.3 05:47:49 10° NNW 05:51:37 37° WNW 05:51:37 37° WNW
COSMOS 2455 3.7 06:07:48 42° WNW 06:07:48 42° WNW 06:13:22 10° N
SL-12 R/B(2) 4.4 06:09:01 55° E 06:09:01 55° E 06:16:49 10° NE
NOSS 0 Rocket 4.4 06:04:50 10° NNW 06:10:02 57° NNE 06:10:02 57° NNE
CZ-4C R/B 3.6 06:13:09 28° NNW 06:13:09 28° NNW 06:16:24 10° NNE
ATLAS 2AS CENTAUR R/B 4.3 06:21:48 10° WNW 06:24:53 20° W 06:24:53 20° W
USA 281 4.4 06:32:33 31° W 06:32:33 31° W 06:36:54 10° NW
Cosmos 2098 Rocket 4.4 06:27:08 10° N 06:32:30 60° NNW 06:32:30 60° NNW
SL-16 R/B 4.1 06:41:20 10° NNE 06:45:31 21° ENE 06:46:35 19° ENE
Cosmos 2227 Rocket 3.1 06:52:28 46° NNW 06:52:28 46° NNW 06:56:40 10° NNE
Cosmos 2237 Rocket 3.1 06:47:17 10° NNW 06:51:07 45° NNW 06:51:07 45° NNW
H-2A R/B 4.4 06:49:39 10° N 06:51:12 21° NNW 06:51:12 21° NNW
Cosmos 2297 Rocket 4.1 07:11:26 19° WNW 07:11:34 19° WNW 07:15:35 10° NNW
Cosmos 2219 3.9 07:15:09 51° N 07:15:09 51° N 07:19:22 10° NNE
CENTAUR R/B 3.2 07:20:44 41° NW 07:20:44 41° NW 07:26:32 10° NNE
Cosmos 2341 Rocket 4.3 07:27:49 57° ENE 07:27:49 57° ENE 07:33:27 10° NNE
ADEOS II 4.3 07:31:21 10° ENE 07:34:10 15° E 07:34:19 15° E
Cosmos 1937 Rocket 4.2 07:38:33 50° NNE 07:38:33 50° NNE 07:42:28 10° NNE
Cosmos 1898 Rocket 4.3 07:42:11 47° N 07:42:11 47° N 07:45:59 10° NNE
Cosmos 2263 Rocket 2.8 07:45:28 50° NNW 07:45:28 50° NNW 07:50:02 10° N
Resurs 1-4 Rocket 3.3 07:43:01 10° NNE 07:47:22 34° E 07:47:22 34° E
Cosmos 2218 Rocket 3.8 08:03:35 89° W 08:03:36 89° W 08:09:49 10° N
Cosmos 1844 Rocket 3.7 08:04:21 35° ESE 08:04:22 35° ESE 08:09:23 10° NE
Cosmos 2366 rocket 3.9 08:10:21 75° W 08:10:24 75° W 08:16:41 10° N
NOSS 3-2 (C) 3.4 08:12:44 55° NW 08:12:44 55° NW 08:17:59 10° NNE
ALOS 4.4 08:09:43 10° NE 08:12:45 17° E 08:13:24 17° ESE
Cosmos 1544 Rocket 4.4 08:14:48 10° N 08:18:04 48° N 08:18:04 48° N
Cosmos 1680 Rocket 4.0 08:14:24 10° N 08:19:30 55° ENE 08:20:14 50° ESE
Cosmos 1818 4.5 08:16:21 10° NNW 08:21:37 46° ENE 08:24:48 22° ESE
Cosmos 2228 3.8 08:18:32 10° N 08:21:59 49° NE 08:21:59 49° NE
USA 267 3.3 08:16:41 10° NE 08:23:08 61° SE 08:24:01 56° SSE
MSX 3.6 08:19:30 10° NNE 08:25:15 86° WNW 08:25:33 81° SW
SL-16 R/B 3.0 08:24:23 10° NNW 08:28:23 39° WNW 08:28:23 39° WNW
SL-16 R/B 4.0 08:29:12 10° SE 08:34:43 34° ENE 08:40:13 10° N
CZ-2C R/B 2.6 08:37:15 61° SE 08:38:08 77° ENE 08:43:28 10° N
IDEFIX/ARIANE 42P 2.9 08:33:12 10° N 08:38:13 52° WNW 08:38:13 52° WNW
SEDSat Delta rocket 4.4 08:41:06 26° E 08:41:06 26° E 08:43:00 10° E
Mugunghwa Rocket 4.4 08:42:20 45° SSE 08:42:20 45° SSE 08:48:03 10° E
CZ-2C R/B 2.8 08:39:11 10° N 08:44:30 82° WNW 08:44:52 76° SW
Cosmos 1943 3.5 08:39:02 10° NNW 08:44:36 64° ENE 08:47:43 26° SE
CZ-2D R/B 2.1 08:43:18 10° N 08:48:32 62° WNW 08:48:55 60° W
FENGYUN 3A 3.5 08:46:29 10° NNE 08:51:54 88° ESE 08:52:54 61° S
ASTEX 1 4.0 08:52:22 33° SE 08:54:14 53° E 08:58:57 10° N
Cosmos 1606 Rocket 4.4 08:50:29 10° N 08:54:45 46° E 08:56:15 33° SE
Cosmos 1536 Rocket 4.5 08:55:28 37° WNW 08:55:28 37° WNW 08:58:58 10° N
Cosmos 921 Rocket 4.5 08:51:27 10° N 08:55:16 33° ENE 08:57:56 17° SE
Cosmos 1125 Rocket 4.1 08:57:57 37° SSE 08:59:34 51° ESE 09:04:41 10° NNE
Cosmos 1867 4.0 09:01:14 43° W 09:02:12 48° WNW 09:07:29 10° NNE
Cosmos 2239 Rocket 4.4 09:00:57 48° SSW 09:02:43 75° W 09:08:51 10° N
SL-08 R/B 4.5 09:05:17 45° SSW 09:07:17 69° W 09:13:34 10° N
Cosmos 1727 Rocket 4.0 09:01:41 10° NNW 09:07:58 69° W 09:10:22 39° SSW
Cosmos 1726 Rocket 4.3 09:05:56 10° N 09:10:15 51° E 09:12:35 25° SSE
Cosmos 494 Rocket 4.4 09:07:01 10° N 09:12:13 63° ENE 09:17:16 11° SSE
Cosmos 1812 4.4 09:10:11 10° NNE 09:13:16 27° E 09:15:37 14° SE
Cosmos 2058 3.8 09:12:19 31° SE 09:13:43 43° E 09:17:35 10° NNE
ADEOS II 2.3 09:08:56 10° N 09:14:00 53° WNW 09:15:11 44° WSW
Cosmos 1844 3.9 09:15:24 42° WSW 09:17:04 57° WNW 09:22:46 10° NNE
IRAS Rocket 4.3 09:12:51 10° NNE 09:18:21 75° ESE 09:20:58 32° S
USA 238 DEB 4.3 09:16:15 29° W 09:18:34 39° NW 09:24:37 10° NNE
USA 238 4.3 09:16:17 29° W 09:18:36 39° NW 09:24:41 10° NNE
Cosmos 1000 Rocket 4.4 09:15:48 10° N 09:22:03 77° W 09:25:45 26° S
SAR-Lupe-4 3.4 09:18:41 10° NNE 09:22:14 85° E 09:22:35 71° S
ATLAS 5 CENTAUR R/B 2.3 09:25:49 25° SE 09:26:26 27° ESE 09:29:17 10° NE
Timation 2 Rocket 4.1 09:23:53 31° SSW 09:27:19 89° ESE 09:33:49 10° NNE
Resurs 1-4 Rocket 3.4 09:23:11 10° NNW 09:27:19 24° WNW 09:28:26 22° W
Iridium 4 Rocket 4.1 09:25:15 10° NNE 09:29:41 49° E 09:34:30 10° SSE
UNK 4.2 09:25:29 10° SSE 09:29:56 60° ENE 09:34:28 10° N
Dummy Sat-01 4.5 09:27:06 10° N 09:30:47 69° W 09:31:21 57° SW
Meteor 1-28 Rocket 3.2 09:35:43 50° WSW 09:35:47 50° W 09:39:13 10° NNW
Delta 142 4.3 09:40:12 32° WSW 09:42:11 47° S 09:48:14 10° ESE
Cosmos 1544 2.3 09:42:30 62° SE 09:42:43 68° E 09:45:19 10° NNE
NOSS 2-3 (D) 4.3 09:42:01 22° SSE 09:43:50 35° ESE 09:47:14 10° NE
Cosmos 1892 Rocket 4.1 09:42:42 34° WSW 09:43:53 42° W 09:48:04 10° N
Cosmos 1535 Rocket 4.4 09:39:57 21° S 09:44:22 82° W 09:50:33 10° N
Delta 2 Rocket 3.4 09:43:07 17° WNW 09:46:09 74° NNE 09:50:32 10° E
NOAA 11 4.3 09:41:50 10° NNE 09:47:19 77° ESE 09:51:42 16° S
Cosmos 1844 Rocket 4.0 09:45:59 20° W 09:48:13 25° WNW 09:52:47 10° N
Cosmos 2058 Rocket 3.2 09:44:07 10° N 09:48:32 73° E 09:52:53 10° SSE
ALOS 3.0 09:45:48 10° N 09:49:59 35° WNW 09:51:42 26° WSW
Cosmos 2298 Rocket 4.0 09:49:11 22° SSW 09:52:43 89° WNW 09:58:04 10° NNE
METEOR-M 4.1 09:49:11 10° N 09:54:32 81° WNW 09:58:36 18° SSW
BREEZE-M DEB (TANK) 3.5 09:54:25 28° WSW 09:56:06 69° NW 10:05:04 10° NE
Cosmos 1607 4.0 09:54:55 10° NNW 10:01:18 84° ENE 10:07:31 10° SSE
NOSS 2-2 (C) 3.0 10:00:13 29° SW 10:01:46 61° WNW 10:04:53 10° NNE
Cosmos 1605 Rocket 4.0 09:57:05 15° SSW 10:02:16 70° W 10:08:24 10° N
USA 267 4.3 10:00:05 10° NNE 10:05:50 34° NW 10:11:21 11° W
Cosmos 2278 Rocket 3.7 10:05:31 10° SSE 10:10:30 33° ESE 10:15:30 10° NE
NOSS 2-2 (D) 2.8 10:08:13 21° SSW 10:10:32 88° NW 10:13:43 10° NNE
Cosmos 1626 Rocket 3.5 10:06:56 14° SSW 10:10:39 73° W 10:15:04 10° N
NOSS 2-3 (E) 3.0 10:08:40 21° SSW 10:11:00 84° WNW 10:14:42 10° NNE
CZ-4 R/B 4.1 10:06:24 10° N 10:11:14 58° WNW 10:15:17 15° SSW
BREEZE-M DEB (TANK) 4.0 10:15:45 11° S 10:15:45 11° S 10:15:54 10° S
H-2A R/B 3.4 10:10:08 10° NNE 10:15:00 37° E 10:19:43 10° SSE
NOSS 2-3 (C) 3.1 10:13:54 20° SW 10:16:21 71° WNW 10:20:02 10° NNE
SL-16 R/B 3.3 10:13:12 12° SSW 10:18:09 32° W 10:23:38 10° NW
Cosmos 1862 4.0 10:14:37 10° S 10:18:18 50° E 10:21:59 10° NNE
IRS-1D 3.5 10:16:27 10° NNE 10:21:37 84° WNW 10:26:38 10° SSW
Cosmos 1271 Rocket 2.9 10:18:11 10° S 10:21:43 64° E 10:25:16 10° NNE
SEDSat Delta rocket 2.7 10:20:59 12° W 10:24:43 73° S 10:28:49 10° E
Cosmos 1484 Rocket 4.3 10:27:08 10° NNE 10:30:39 35° E 10:34:07 10° SSE
Envisat 4.0 10:29:57 10° N 10:34:19 30° WNW 10:38:38 10° SW
Mugunghwa Rocket 4.3 10:31:00 10° WSW 10:37:16 48° S 10:43:17 10° ESE
Okean 1-7 Rocket 3.7 10:35:02 10° SSW 10:39:28 58° W 10:43:53 10° N
CZ-2C R/B 3.1 10:40:14 10° N 10:44:18 33° WNW 10:48:26 10° SW
SWARM A 4.5 10:42:50 10° SSW 10:46:18 56° W 10:49:48 10° N
NOSS 3-1 (C) 4.3 10:42:52 10° S 10:46:59 33° ESE 10:51:31 10° NE
Lacrosse 5 2.7 10:43:00 10° SSW 10:47:49 47° ESE 10:52:40 10° NE
Cosmos 1238 Rocket 3.9 10:45:50 10° NW 10:47:52 16° W 10:49:46 10° SW
Cosmos-2242 3.2 10:44:29 10° NNW 10:48:39 52° W 10:52:47 10° S
Cosmos 1782 3.1 10:50:02 10° NNW 10:53:40 42° W 10:57:17 10° SSW
